Miscellaneous Local Product
Issued by NWS North Platte, NE

Home | Current Version | Previous Version | Graphics & Text | Print | Product List | Glossary Off
Versions: 1 2 3 4 5 6 7 8 9 10 11 12 13 14 15 16 17 18 19 20 21 22 23 24 25 26 27 28 29 30 31 32 33 34 35 36 37 38 39 40 41 42 43 44 45 46 47 48 49 50

000
AXUS43 KLBF 240210
MISLBF


WESTERN AND NORTH CENTRAL NEBRASKA HOURLY WEATHER ROUNDUP
NATIONAL WEATHER SERVICE NORTH PLATTE NE
900 PM CDT TUE SEP 23 2014

***STATIONS NOT REPORTING VARIABLES SUCH AS SKY/WEATHER OR
PRESSURE ARE PROVIDED BY THE NEBRASKA DEPARTMENT OF
ROADS...RAWS...AND APRS NETWORKS...AND ARE NOT UNDER
NATIONAL WEATHER SERVICE QUALITY CONTROL***

...OBSERVATIONS IN AND NEAR THE EASTERN PANHANDLE OF NEBRASKA...

CITY           SKY/WX    TMP DP  RH WIND       PRES   REMARKS
PINE RIDGE     PTCLDY    60  54  80 E6        29.98R
CHADRON        PTCLDY    62  53  72 CALM      29.98R
ALLIANCE       MOCLDY    65  51  60 S7        30.03R
SIDNEY         MOCLDY    66  48  52 N6        30.07R
WHITECLAY        N/A     59  52  77 SE3         N/A
RUSHVILLE        N/A     59  49  70 S5          N/A
CRESCENT LAKE    N/A     69  51  53 MISG        N/A
LISCO            N/A     70  52  52 N12         N/A
BIG SPRINGS      N/A     74  57  55 CALM        N/A
$$

...OBSERVATIONS IN NORTH CENTRAL NEBRASKA...

CITY           SKY/WX    TMP DP  RH WIND       PRES   REMARKS
VALENTINE      CLEAR     63  60  90 CALM      29.95R
THEDFORD       PTCLDY    66  61  82 SE3       29.99R
AINSWORTH      CLEAR     63  59  89 S9        29.96R
O`NEILL        CLOUDY    61  60  95 SE18G26   29.98S
ORD            LGT RAIN  62  58  86 SE10G18   30.00R
BROKEN BOW     LGT RAIN  64  60  87 SE7       30.00R
SPRINGVIEW       N/A     63  59  86 E3          N/A
ROSE             N/A     65  65  99 E15         N/A
NEWPORT          N/A     62  61  94 SE12        N/A
COMSTOCK         N/A     67  64  90 SE14        N/A
CHAMBERS         N/A     60  58  94 S6          N/A
EWING            N/A     60  58  93 CALM        N/A
$$

...OBSERVATIONS IN SOUTHWEST NEBRASKA AND FAR NORTHEAST COLORADO...

CITY           SKY/WX    TMP DP  RH WIND       PRES   REMARKS
WRAY           FAIR      65  55  68 SW8       30.03R
HOLYOKE        FAIR      63  50  63 W7        30.03R
IMPERIAL       CLEAR     68  49  50 N7        30.00R
OGALLALA       PTCLDY    68  53  57 N5        30.00R
NORTH PLATTE   PTCLDY    68  59  73 E9        29.98R
MCCOOK         CLEAR     70  59  68 S5        29.96R
LEXINGTON      MOCLDY    67  60  77 E9        29.99R
PAXTON           N/A     75  52  45 CALM        N/A
SUTHERLAND       N/A     71  55  57 CALM        N/A
BRADY            N/A     69  60  74 NE5G12      N/A
GOTHENBURG       N/A     72  58  61 SE7         N/A
CALLAWAY         N/A     63  60  90 NE13        N/A
$$

...SOME WEATHER OBSERVATIONS FROM AROUND THE REGION...

CITY           SKY/WX    TMP DP  RH WIND       PRES   REMARKS
DENVER         MOCLDY    67  43  41 SE7       30.16R
LARAMIE        PTCLDY    53  40  61 W8        30.27R
CHEYENNE       PTCLDY    63  39  41 W8        30.19R
SCOTTSBLUFF    PTCLDY    68  48  48 S3        30.04R
RAPID CITY     CLEAR     63  53  70 CALM      29.96R
PIERRE         PTCLDY    60  57  89 E9        29.92R
WINNER         FAIR      66  59  78 S14G21    29.91R
SIOUX FALLS    CLOUDY    62  56  80 SE15      30.04S
OMAHA          CLOUDY    65  53  65 SE16      30.11R
GRAND ISLAND   CLOUDY    62  57  83 SE10      30.03R
KANSAS CITY    CLOUDY    67  52  58 SE10      30.17R
WICHITA        CLOUDY    71  51  49 SE17      30.07R
LIBERAL        CLOUDY    66  55  68 N37G44    30.08R THUNDER
GOODLAND       PTCLDY    66  58  75 SW5       30.05R
$$



USA.gov is the U.S. government's official web portal to all federal, state and local government web resources and services.